Weather History for Athens, OH

Change the Weather History Date:

Tuesday, November 8, 2011

  Actual Average (KPKB) Record (KPKB)
Temperature  
Mean Temperature 51 °F 48 °F  
Max Temperature 69 °F 59 °F 75 °F (1932)
Min Temperature 33 °F 38 °F 19 °F (1971)
Degree Days  
Heating Degree Days 14 17  
Month to date heating degree days 127  
Cooling Degree Days 0 0  
Month to date cooling degree days 0  
Growing Degree Days 1 (Base 50)    
Moisture  
Dew Point 39 °F    
Average Humidity 71    
Maximum Humidity 93    
Minimum Humidity 35    
Precipitation  
Precipitation 0.00 in 0.10 in 0.30 in (2005)
Month to date precipitation 0.86  
Sea Level Pressure  
Sea Level Pressure 30.18 in    
Wind  
Wind Speed 1 mph (SSW)    
Max Wind Speed 10 mph    
Max Gust Speed 17 mph    
Visibility 10 miles    
Events      
T = Trace of Precipitation, MM = Missing Value Source: NWS Daily Summary

Daily Weather History Graph

Daily Weather History Graph

Search for Another Location

Airport:

Trip Planner

Search our weather history database for the weather conditions in past years. The results will help you decide how hot, cold, wet, or windy it might be!

Date:

Astronomy

Nov. 08, 2011 Rise Set
Actual Time 7:04 AM EST 5:20 PM EST
Civil Twilight 6:35 AM EST 5:48 PM EST
Nautical Twilight 6:03 AM EST 6:20 PM EST
Astronomical Twilight 5:32 AM EST 6:52 PM EST
Moon 3:59 PM EST (11/8) 5:02 AM EST (11/8)
Length of Visible Light 11h 12m
Length of Day
10h 16m
Waxing Gibbous, 96% of the Moon is Illuminated
Nov 8
Waxing Gibbous
Nov 10
Full
Nov 18
Last Quarter
Nov 25
New
Dec 2
First Quarter

Hourly Weather History & Observations

Time (EST) Temp. Dew Point Humidity Pressure Visibility Wind Dir Wind Speed Gust Speed Precip Events Conditions
12:15 AM 39.2 °F 35.6 °F 87% 30.24 in 10.0 mi Calm Calm - N/A   Clear
12:35 AM 37.4 °F 35.6 °F 93% 30.24 in 10.0 mi Calm Calm - N/A   Clear
12:55 AM 39.2 °F 35.6 °F 87% 30.24 in 10.0 mi Calm Calm - N/A   Clear
1:15 AM 37.4 °F 35.6 °F 93% 30.24 in 10.0 mi Calm Calm - N/A   Clear
1:35 AM 37.4 °F 33.8 °F 87% 30.24 in 10.0 mi Calm Calm - N/A   Clear
1:55 AM 37.4 °F 33.8 °F 87% 30.23 in 10.0 mi Calm Calm - N/A   Clear
2:15 AM 35.6 °F 33.8 °F 93% 30.23 in 10.0 mi Calm Calm - N/A   Clear
2:35 AM 35.6 °F 33.8 °F 93% 30.22 in 10.0 mi Calm Calm - N/A   Clear
2:55 AM 35.6 °F 33.8 °F 93% 30.22 in 10.0 mi Calm Calm - N/A   Clear
3:35 AM 35.6 °F 33.8 °F 93% 30.22 in 10.0 mi Calm Calm - N/A   Clear
4:15 AM 35.6 °F 32.0 °F 87% 30.23 in 10.0 mi Calm Calm - N/A   Clear
4:35 AM 35.6 °F 32.0 °F 87% 30.23 in 10.0 mi Calm Calm - N/A   Clear
4:55 AM 33.8 °F 32.0 °F 93% 30.23 in 10.0 mi Calm Calm - N/A   Clear
5:15 AM 33.8 °F 32.0 °F 93% 30.23 in 10.0 mi Calm Calm - N/A   Clear
5:35 AM 33.8 °F 32.0 °F 93% 30.23 in 10.0 mi Calm Calm - N/A   Clear
5:55 AM 33.8 °F 32.0 °F 93% 30.23 in 10.0 mi Calm Calm - N/A   Clear
6:15 AM 33.8 °F 32.0 °F 93% 30.22 in 10.0 mi Calm Calm - N/A   Clear
6:35 AM 33.8 °F 32.0 °F 93% 30.22 in 10.0 mi Calm Calm - N/A   Clear
6:55 AM 33.8 °F 32.0 °F 93% 30.23 in 10.0 mi Calm Calm - N/A   Clear
7:15 AM 33.8 °F 32.0 °F 93% 30.23 in 10.0 mi Calm Calm - N/A   Clear
7:35 AM 33.8 °F 32.0 °F 93% 30.23 in 10.0 mi Calm Calm - N/A   Clear
7:55 AM 33.8 °F 32.0 °F 93% 30.23 in 10.0 mi Calm Calm - N/A   Clear
8:15 AM 37.4 °F 33.8 °F 87% 30.24 in 10.0 mi Calm Calm - N/A   Clear
8:35 AM 39.2 °F 35.6 °F 87% 30.24 in 10.0 mi Calm Calm - N/A   Clear
8:55 AM 42.8 °F 39.2 °F 87% 30.23 in 10.0 mi Calm Calm - N/A   Clear
9:15 AM 46.4 °F 41.0 °F 81% 30.23 in 10.0 mi Calm Calm - N/A   Clear
9:35 AM 53.6 °F 42.8 °F 67% 30.23 in 10.0 mi SW 4.6 mph - N/A   Clear
9:55 AM 53.6 °F 42.8 °F 67% 30.22 in 10.0 mi SSW 4.6 mph - N/A   Clear
10:15 AM 55.4 °F 42.8 °F 63% 30.22 in 10.0 mi South 4.6 mph - N/A   Clear
10:35 AM 59.0 °F 42.8 °F 55% 30.22 in 10.0 mi South 4.6 mph - N/A   Clear
10:55 AM 60.8 °F 42.8 °F 52% 30.22 in 10.0 mi South 4.6 mph - N/A   Clear
11:15 AM 60.8 °F 44.6 °F 55% 30.21 in 10.0 mi SSW 4.6 mph - N/A   Clear
11:35 AM 64.4 °F 44.6 °F 49% 30.21 in 10.0 mi South 5.8 mph - N/A   Clear
11:55 AM 64.4 °F 44.6 °F 49% 30.19 in 10.0 mi WSW 5.8 mph - N/A   Clear
12:15 PM 66.2 °F 44.6 °F 46% 30.18 in 10.0 mi WSW 5.8 mph - N/A   Clear
12:35 PM 68.0 °F 44.6 °F 43% 30.17 in 10.0 mi WSW 5.8 mph - N/A   Clear
12:55 PM 68.0 °F 44.6 °F 43% 30.16 in 10.0 mi South 6.9 mph - N/A   Clear
1:15 PM 68.0 °F 42.8 °F 40% 30.16 in 10.0 mi West 4.6 mph 17.3 mph N/A   Clear
1:35 PM 68.0 °F 42.8 °F 40% 30.15 in 10.0 mi SSW 4.6 mph - N/A   Clear
1:55 PM 69.8 °F 42.8 °F 38% 30.14 in 10.0 mi WSW 6.9 mph - N/A   Clear
2:15 PM 69.8 °F 41.0 °F 35% 30.13 in 10.0 mi South 10.4 mph - N/A   Clear
2:35 PM 69.8 °F 41.0 °F 35% 30.13 in 10.0 mi South 10.4 mph - N/A   Clear
3:15 PM 69.8 °F 41.0 °F 35% 30.12 in 10.0 mi SSW 9.2 mph - N/A   Clear
3:35 PM 69.8 °F 41.0 °F 35% 30.11 in 10.0 mi SW 6.9 mph - N/A   Clear
4:15 PM 68.0 °F 41.0 °F 37% 30.11 in 10.0 mi South 5.8 mph - N/A   Clear
4:35 PM 68.0 °F 41.0 °F 37% 30.11 in 10.0 mi South 4.6 mph - N/A   Clear
4:55 PM 66.2 °F 42.8 °F 43% 30.11 in 10.0 mi South 3.5 mph - N/A   Clear
5:15 PM 64.4 °F 42.8 °F 45% 30.11 in 10.0 mi South 3.5 mph - N/A   Clear
5:35 PM 60.8 °F 42.8 °F 52% 30.11 in 10.0 mi Calm Calm - N/A   Clear
5:55 PM 59.0 °F 42.8 °F 55% 30.11 in 10.0 mi Calm Calm - N/A   Clear
6:15 PM 55.4 °F 42.8 °F 63% 30.12 in 10.0 mi Calm Calm - N/A   Clear
6:35 PM 53.6 °F 42.8 °F 67% 30.12 in 10.0 mi Calm Calm - N/A   Clear
6:55 PM 51.8 °F 41.0 °F 67% 30.12 in 10.0 mi Calm Calm - N/A   Clear
7:15 PM 50.0 °F 42.8 °F 76% 30.12 in 10.0 mi Calm Calm - N/A   Clear
7:35 PM 48.2 °F 41.0 °F 76% 30.12 in 10.0 mi Calm Calm - N/A   Clear
7:55 PM 48.2 °F 41.0 °F 76% 30.12 in 10.0 mi Calm Calm - N/A   Clear
8:15 PM 46.4 °F 41.0 °F 81% 30.11 in 10.0 mi Calm Calm - N/A   Clear
8:35 PM 44.6 °F 41.0 °F 87% 30.11 in 10.0 mi Calm Calm - N/A   Clear
8:55 PM 46.4 °F 41.0 °F 81% 30.11 in 10.0 mi Calm Calm - N/A   Clear
9:15 PM 44.6 °F 41.0 °F 87% 30.11 in 10.0 mi Calm Calm - N/A   Clear
9:35 PM 42.8 °F 39.2 °F 87% 30.10 in 10.0 mi Calm Calm - N/A   Clear
9:55 PM 42.8 °F 39.2 °F 87% 30.10 in 10.0 mi Calm Calm - N/A   Clear
10:15 PM 42.8 °F 37.4 °F 81% 30.10 in 10.0 mi Calm Calm - N/A   Clear
10:35 PM 42.8 °F 39.2 °F 87% 30.10 in 10.0 mi Calm Calm - N/A   Clear
10:55 PM 41.0 °F 35.6 °F 81% 30.09 in 10.0 mi Calm Calm - N/A   Clear
11:15 PM 41.0 °F 37.4 °F 87% 30.09 in 10.0 mi Calm Calm - N/A   Clear
11:35 PM 41.0 °F 35.6 °F 81% 30.09 in 10.0 mi Calm Calm - N/A   Clear
11:55 PM 39.2 °F 37.4 °F 93% 30.08 in 10.0 mi Calm Calm - N/A   Clear